Time,TemperatureF,DewpointF,PressureIn,WindDirection,WindDirectionDegrees,WindSpeedMPH,WindSpeedGustMPH,Humidity,HourlyPrecipIn,Conditions,Clouds,dailyrainin,SoftwareType,DateUTC
2013-05-14 00:00:00,74.0,47.5,30.08,SW,234,9.0,9.0,39,0.00,,,0.00,Wunderground v.1.15,2013-05-14 05:00:00,
2013-05-14 00:01:00,73.9,47.0,30.08,SSW,208,8.0,15.0,39,0.00,,,0.00,weatherlink.com 1.10,2013-05-14 05:01:00,
2013-05-14 00:10:00,73.7,47.2,30.08,SSW,204,9.0,10.0,39,0.00,,,0.00,Wunderground v.1.15,2013-05-14 05:10:00,
2013-05-14 00:15:00,73.6,47.8,30.08,SSW,194,9.0,15.0,40,0.00,,,0.00,Wunderground v.1.15,2013-05-14 05:15:00,
2013-05-14 00:16:00,73.5,47.0,30.08,SSW,205,8.0,16.0,39,0.00,,,0.00,weatherlink.com 1.10,2013-05-14 05:16:00,
2013-05-14 00:25:00,73.4,47.6,30.08,SW,215,9.0,9.0,40,0.00,,,0.00,Wunderground v.1.15,2013-05-14 05:25:00,
2013-05-14 00:30:00,73.2,47.4,30.08,SSW,200,8.0,8.0,40,0.00,,,0.00,Wunderground v.1.15,2013-05-14 05:30:00,
2013-05-14 00:31:00,73.2,47.0,30.08,SW,229,8.0,14.0,40,0.00,,,0.00,weatherlink.com 1.10,2013-05-14 05:31:00,
2013-05-14 00:40:00,72.7,47.6,30.08,SSW,194,7.0,10.0,41,0.00,,,0.00,Wunderground v.1.15,2013-05-14 05:40:00,
2013-05-14 00:45:00,72.5,47.5,30.08,SSW,213,7.0,12.0,41,0.00,,,0.00,Wunderground v.1.15,2013-05-14 05:45:00,
2013-05-14 00:46:00,72.5,47.0,30.08,SSW,207,7.0,13.0,41,0.00,,,0.00,weatherlink.com 1.10,2013-05-14 05:46:00,
2013-05-14 00:50:00,72.4,48.0,30.08,SSW,192,7.0,7.0,42,0.00,,,0.00,Wunderground v.1.15,2013-05-14 05:50:00,
2013-05-14 01:00:00,72.1,47.7,30.07,SSW,202,6.0,7.0,42,0.00,,,0.00,Wunderground v.1.15,2013-05-14 06:00:00,
2013-05-14 01:01:00,72.1,48.0,30.07,SSW,213,6.0,12.0,42,0.00,,,0.00,weatherlink.com 1.10,2013-05-14 06:01:00,
2013-05-14 01:10:00,71.9,48.2,30.07,SW,215,7.0,7.0,43,0.00,,,0.00,Wunderground v.1.15,2013-05-14 06:10:00,
2013-05-14 01:15:00,71.8,48.1,30.07,SSW,211,7.0,7.0,43,0.00,,,0.00,Wunderground v.1.15,2013-05-14 06:15:00,
2013-05-14 01:16:00,71.7,48.0,30.07,WSW,242,7.0,13.0,43,0.00,,,0.00,weatherlink.com 1.10,2013-05-14 06:16:00,
2013-05-14 01:25:00,71.6,47.9,30.07,SSW,201,6.0,10.0,43,0.00,,,0.00,Wunderground v.1.15,2013-05-14 06:25:00,
2013-05-14 01:30:00,71.5,48.4,30.07,SW,224,6.0,12.0,44,0.00,,,0.00,Wunderground v.1.15,2013-05-14 06:30:00,
2013-05-14 01:31:00,71.5,48.0,30.07,SSW,194,4.0,13.0,44,0.00,,,0.00,weatherlink.com 1.10,2013-05-14 06:31:00,
2013-05-14 01:40:00,71.4,48.3,30.07,SSW,196,7.0,7.0,44,0.00,,,0.00,Wunderground v.1.15,2013-05-14 06:40:00,
2013-05-14 01:45:00,71.2,48.2,30.07,SW,215,6.0,7.0,44,0.00,,,0.00,Wunderground v.1.15,2013-05-14 06:45:00,
2013-05-14 01:46:00,71.2,48.0,30.07,SSW,202,6.0,11.0,44,0.00,,,0.00,weatherlink.com 1.10,2013-05-14 06:46:00,
2013-05-14 01:55:00,70.9,48.5,30.06,SW,221,5.0,7.0,45,0.00,,,0.00,Wunderground v.1.15,2013-05-14 06:55:00,
2013-05-14 02:00:00,70.7,48.3,30.06,SSW,208,5.0,5.0,45,0.00,,,0.00,Wunderground v.1.15,2013-05-14 07:00:00,
2013-05-14 02:02:00,70.6,48.0,30.06,SSW,206,5.0,8.0,45,0.00,,,0.00,weatherlink.com 1.10,2013-05-14 07:02:00,
2013-05-14 02:10:00,70.2,48.4,30.06,SSW,205,5.0,7.0,46,0.00,,,0.00,Wunderground v.1.15,2013-05-14 07:10:00,
2013-05-14 02:15:00,70.1,48.9,30.06,SSW,208,5.0,7.0,47,0.00,,,0.00,Wunderground v.1.15,2013-05-14 07:15:00,
2013-05-14 02:17:00,70.0,49.0,30.06,SSW,213,3.0,7.0,47,0.00,,,0.00,weatherlink.com 1.10,2013-05-14 07:17:00,
2013-05-14 02:25:00,69.8,48.7,30.06,SSW,205,5.0,6.0,47,0.00,,,0.00,Wunderground v.1.15,2013-05-14 07:25:00,
2013-05-14 02:32:00,69.5,49.0,30.05,SSW,203,2.0,7.0,48,0.00,,,0.00,weatherlink.com 1.10,2013-05-14 07:32:00,
2013-05-14 02:40:00,69.2,49.2,30.05,SSW,207,3.0,3.0,49,0.00,,,0.00,Wunderground v.1.15,2013-05-14 07:40:00,
2013-05-14 02:47:00,69.0,49.0,30.05,SW,217,4.0,5.0,49,0.00,,,0.00,weatherlink.com 1.10,2013-05-14 07:47:00,
2013-05-14 02:55:00,68.7,49.3,30.05,SSW,205,3.0,4.0,50,0.00,,,0.00,Wunderground v.1.15,2013-05-14 07:55:00,
2013-05-14 03:00:00,68.6,49.2,30.05,SSW,209,4.0,4.0,50,0.00,,,0.00,Wunderground v.1.15,2013-05-14 08:00:00,
2013-05-14 03:02:00,68.6,50.0,30.05,SSW,207,4.0,7.0,51,0.00,,,0.00,weatherlink.com 1.10,2013-05-14 08:02:00,
2013-05-14 03:10:00,68.6,49.7,30.05,SSW,207,3.0,3.0,51,0.00,,,0.00,Wunderground v.1.15,2013-05-14 08:10:00,
2013-05-14 03:15:00,68.5,49.7,30.05,SSW,210,4.0,4.0,51,0.00,,,0.00,Wunderground v.1.15,2013-05-14 08:15:00,
2013-05-14 03:17:00,68.4,50.0,30.05,SSW,205,4.0,7.0,52,0.00,,,0.00,weatherlink.com 1.10,2013-05-14 08:17:00,
2013-05-14 03:25:00,68.3,50.0,30.05,SSW,210,3.0,4.0,52,0.00,,,0.00,Wunderground v.1.15,2013-05-14 08:25:00,
2013-05-14 03:30:00,68.2,49.9,30.05,SSW,209,3.0,4.0,52,0.00,,,0.00,Wunderground v.1.15,2013-05-14 08:30:00,
2013-05-14 03:32:00,68.1,50.0,30.05,SSW,209,5.0,6.0,52,0.00,,,0.00,weatherlink.com 1.10,2013-05-14 08:32:00,
2013-05-14 03:40:00,68.0,50.2,30.05,SSW,201,4.0,4.0,53,0.00,,,0.00,Wunderground v.1.15,2013-05-14 08:40:00,
2013-05-14 03:45:00,68.1,50.3,30.05,SSW,204,4.0,5.0,53,0.00,,,0.00,Wunderground v.1.15,2013-05-14 08:45:00,
2013-05-14 03:47:00,68.0,50.0,30.05,SSW,207,5.0,7.0,53,0.00,,,0.00,weatherlink.com 1.10,2013-05-14 08:47:00,
2013-05-14 03:55:00,68.0,50.2,30.06,SW,217,4.0,4.0,53,0.00,,,0.00,Wunderground v.1.15,2013-05-14 08:55:00,
2013-05-14 04:00:00,67.9,50.1,30.06,SSW,206,3.0,5.0,53,0.00,,,0.00,Wunderground v.1.15,2013-05-14 09:00:00,
2013-05-14 04:04:00,67.6,50.0,30.06,SSW,203,3.0,5.0,53,0.00,,,0.00,weatherlink.com 1.10,2013-05-14 09:04:00,
2013-05-14 04:10:00,67.4,50.2,30.06,SSW,203,3.0,4.0,54,0.00,,,0.00,Wunderground v.1.15,2013-05-14 09:10:00,
2013-05-14 04:15:00,67.5,50.3,30.06,SW,219,3.0,4.0,54,0.00,,,0.00,Wunderground v.1.15,2013-05-14 09:15:00,
2013-05-14 04:19:00,67.5,50.0,30.06,SW,223,3.0,7.0,53,0.00,,,0.00,weatherlink.com 1.10,2013-05-14 09:19:00,
2013-05-14 04:20:00,67.6,49.9,30.05,SSW,211,4.0,4.0,53,0.00,,,0.00,Wunderground v.1.15,2013-05-14 09:20:00,
2013-05-14 04:25:00,67.6,49.9,30.05,SSW,211,4.0,4.0,53,0.00,,,0.00,Wunderground v.1.15,2013-05-14 09:25:00,
2013-05-14 04:33:00,67.7,50.0,30.05,SSW,205,5.0,8.0,53,0.00,,,0.00,weatherlink.com 1.10,2013-05-14 09:33:00,
2013-05-14 04:35:00,67.7,49.9,30.06,SW,225,5.0,5.0,53,0.00,,,0.00,Wunderground v.1.15,2013-05-14 09:35:00,
2013-05-14 04:40:00,67.8,50.0,30.06,SSW,213,5.0,5.0,53,0.00,,,0.00,Wunderground v.1.15,2013-05-14 09:40:00,
2013-05-14 04:45:00,67.9,50.1,30.05,SSW,211,5.0,5.0,53,0.00,,,0.00,Wunderground v.1.15,2013-05-14 09:45:00,
2013-05-14 04:49:00,68.0,50.0,30.05,SW,227,4.0,9.0,53,0.00,,,0.00,weatherlink.com 1.10,2013-05-14 09:49:00,
2013-05-14 04:55:00,68.1,50.3,30.06,SW,214,5.0,8.0,53,0.00,,,0.00,Wunderground v.1.15,2013-05-14 09:55:00,
2013-05-14 05:00:00,68.3,50.5,30.05,SSW,211,5.0,5.0,53,0.00,,,0.00,Wunderground v.1.15,2013-05-14 10:00:00,
2013-05-14 05:04:00,68.1,50.0,30.05,SW,216,4.0,8.0,53,0.00,,,0.00,weatherlink.com 1.10,2013-05-14 10:04:00,
2013-05-14 05:10:00,68.0,50.2,30.05,SW,217,5.0,5.0,53,0.00,,,0.00,Wunderground v.1.15,2013-05-14 10:10:00,
2013-05-14 05:15:00,67.8,50.0,30.06,SSW,211,5.0,5.0,53,0.00,,,0.00,Wunderground v.1.15,2013-05-14 10:15:00,
2013-05-14 05:19:00,67.8,50.0,30.06,SW,219,4.0,7.0,54,0.00,,,0.00,weatherlink.com 1.10,2013-05-14 10:19:00,
2013-05-14 05:25:00,67.7,50.5,30.06,SSW,207,5.0,7.0,54,0.00,,,0.00,Wunderground v.1.15,2013-05-14 10:25:00,
2013-05-14 05:30:00,67.5,50.8,30.06,SW,218,5.0,5.0,55,0.00,,,0.00,Wunderground v.1.15,2013-05-14 10:30:00,
2013-05-14 05:34:00,67.4,51.0,30.06,SSW,212,4.0,10.0,55,0.00,,,0.00,weatherlink.com 1.10,2013-05-14 10:34:00,
2013-05-14 05:40:00,67.2,50.5,30.06,SSW,192,5.0,5.0,55,0.00,,,0.00,Wunderground v.1.15,2013-05-14 10:40:00,
2013-05-14 05:45:00,67.2,50.5,30.06,SW,231,5.0,7.0,55,0.00,,,0.00,Wunderground v.1.15,2013-05-14 10:45:00,
2013-05-14 05:49:00,67.2,51.0,30.06,SW,215,7.0,10.0,56,0.00,,,0.00,weatherlink.com 1.10,2013-05-14 10:49:00,
2013-05-14 05:55:00,67.1,50.9,30.06,SSW,208,5.0,6.0,56,0.00,,,0.00,Wunderground v.1.15,2013-05-14 10:55:00,
2013-05-14 06:00:00,67.1,50.9,30.06,SW,227,5.0,5.0,56,0.00,,,0.00,Wunderground v.1.15,2013-05-14 11:00:00,
2013-05-14 06:04:00,67.1,51.0,30.06,SW,222,2.0,7.0,56,0.00,,,0.00,weatherlink.com 1.10,2013-05-14 11:04:00,
2013-05-14 06:10:00,67.1,50.9,30.07,SW,225,5.0,5.0,56,0.00,,,0.00,Wunderground v.1.15,2013-05-14 11:10:00,
2013-05-14 06:15:00,66.9,50.7,30.07,SW,215,4.0,5.0,56,0.00,,,0.00,Wunderground v.1.15,2013-05-14 11:15:00,
2013-05-14 06:19:00,66.8,50.0,30.06,SW,221,5.0,7.0,56,0.00,,,0.00,weatherlink.com 1.10,2013-05-14 11:19:00,
2013-05-14 06:25:00,66.6,50.4,30.07,SW,225,4.0,4.0,56,0.00,,,0.00,Wunderground v.1.15,2013-05-14 11:25:00,
2013-05-14 06:34:00,66.3,50.0,30.07,SSW,211,4.0,7.0,57,0.00,,,0.00,weatherlink.com 1.10,2013-05-14 11:34:00,
2013-05-14 06:35:00,66.3,50.6,30.07,SSW,209,4.0,4.0,57,0.00,,,0.00,Wunderground v.1.15,2013-05-14 11:35:00,
2013-05-14 06:45:00,65.7,51.0,30.07,SSW,207,3.0,5.0,59,0.00,,,0.00,Wunderground v.1.15,2013-05-14 11:45:00,
2013-05-14 06:49:00,65.6,51.0,30.07,SSW,200,4.0,7.0,59,0.00,,,0.00,weatherlink.com 1.10,2013-05-14 11:49:00,
2013-05-14 06:55:00,65.6,50.9,30.07,SSW,202,3.0,4.0,59,0.00,,,0.00,Wunderground v.1.15,2013-05-14 11:55:00,
2013-05-14 07:00:00,65.6,50.9,30.07,SSW,213,3.0,4.0,59,0.00,,,0.00,Wunderground v.1.15,2013-05-14 12:00:00,
2013-05-14 07:04:00,65.7,51.0,30.07,SSW,209,2.0,7.0,59,0.00,,,0.00,weatherlink.com 1.10,2013-05-14 12:04:00,
2013-05-14 07:10:00,65.8,51.1,30.07,SW,217,3.0,3.0,59,0.00,,,0.00,Wunderground v.1.15,2013-05-14 12:10:00,
2013-05-14 07:15:00,66.0,51.3,30.07,SSW,213,3.0,3.0,59,0.00,,,0.00,Wunderground v.1.15,2013-05-14 12:15:00,
2013-05-14 07:19:00,66.2,51.0,30.07,SSW,202,4.0,6.0,59,0.00,,,0.00,weatherlink.com 1.10,2013-05-14 12:19:00,
2013-05-14 07:25:00,66.4,51.6,30.07,SW,229,4.0,5.0,59,0.00,,,0.00,Wunderground v.1.15,2013-05-14 12:25:00,
2013-05-14 07:30:00,66.7,51.5,30.07,SW,216,3.0,4.0,58,0.00,,,0.00,Wunderground v.1.15,2013-05-14 12:30:00,
2013-05-14 07:34:00,67.0,52.0,30.07,SSW,207,4.0,6.0,58,0.00,,,0.00,weatherlink.com 1.10,2013-05-14 12:34:00,
2013-05-14 07:40:00,67.2,51.9,30.08,SSW,199,4.0,7.0,58,0.00,,,0.00,Wunderground v.1.15,2013-05-14 12:40:00,
2013-05-14 07:45:00,67.5,52.2,30.08,SSW,193,6.0,7.0,58,0.00,,,0.00,Wunderground v.1.15,2013-05-14 12:45:00,
2013-05-14 07:49:00,67.6,53.0,30.08,SSW,196,3.0,8.0,59,0.00,,,0.00,weatherlink.com 1.10,2013-05-14 12:49:00,
2013-05-14 07:55:00,67.6,52.8,30.08,South,184,4.0,5.0,59,0.00,,,0.00,Wunderground v.1.15,2013-05-14 12:55:00,
2013-05-14 08:00:00,67.7,52.9,30.08,South,183,4.0,5.0,59,0.00,,,0.00,Wunderground v.1.15,2013-05-14 13:00:00,
2013-05-14 08:04:00,67.7,53.0,30.08,South,182,6.0,7.0,59,0.00,,,0.00,weatherlink.com 1.10,2013-05-14 13:04:00,
2013-05-14 08:10:00,68.3,52.9,30.08,SW,216,5.0,5.0,58,0.00,,,0.00,Wunderground v.1.15,2013-05-14 13:10:00,
2013-05-14 08:20:00,69.3,52.9,30.08,SSW,202,6.0,6.0,56,0.00,,,0.00,Wunderground v.1.15,2013-05-14 13:20:00,
2013-05-14 08:21:00,69.3,53.0,30.08,South,186,5.0,11.0,56,0.00,,,0.00,weatherlink.com 1.10,2013-05-14 13:21:00,
2013-05-14 08:30:00,70.0,53.6,30.08,SW,218,5.0,5.0,56,0.00,,,0.00,Wunderground v.1.15,2013-05-14 13:30:00,
2013-05-14 08:35:00,70.2,53.3,30.08,South,190,5.0,5.0,55,0.00,,,0.00,Wunderground v.1.15,2013-05-14 13:35:00,
2013-05-14 08:36:00,70.3,53.0,30.08,SSW,192,6.0,10.0,55,0.00,,,0.00,weatherlink.com 1.10,2013-05-14 13:36:00,
2013-05-14 08:40:00,70.6,53.6,30.08,SSW,205,6.0,6.0,55,0.00,,,0.00,Wunderground v.1.15,2013-05-14 13:40:00,
2013-05-14 08:50:00,71.5,54.5,30.08,SW,217,5.0,5.0,55,0.00,,,0.00,Wunderground v.1.15,2013-05-14 13:50:00,
2013-05-14 08:51:00,71.6,54.0,30.09,SSW,213,7.0,10.0,54,0.00,,,0.00,weatherlink.com 1.10,2013-05-14 13:51:00,
2013-05-14 09:00:00,72.2,54.6,30.08,SSW,209,6.0,6.0,54,0.00,,,0.00,Wunderground v.1.15,2013-05-14 14:00:00,
2013-05-14 09:05:00,72.7,55.1,30.08,SSW,204,6.0,6.0,54,0.00,,,0.00,Wunderground v.1.15,2013-05-14 14:05:00,
2013-05-14 09:06:00,72.8,55.0,30.08,SW,223,6.0,12.0,53,0.00,,,0.00,weatherlink.com 1.10,2013-05-14 14:06:00,
2013-05-14 09:10:00,73.1,54.9,30.08,SW,227,6.0,7.0,53,0.00,,,0.00,Wunderground v.1.15,2013-05-14 14:10:00,
2013-05-14 09:15:00,73.2,55.0,30.09,SSW,198,6.0,11.0,53,0.00,,,0.00,Wunderground v.1.15,2013-05-14 14:15:00,
2013-05-14 09:20:00,73.4,54.7,30.08,South,189,7.0,7.0,52,0.00,,,0.00,Wunderground v.1.15,2013-05-14 14:20:00,
2013-05-14 09:21:00,73.5,55.0,30.08,SSW,203,6.0,14.0,52,0.00,,,0.00,weatherlink.com 1.10,2013-05-14 14:21:00,
2013-05-14 09:30:00,74.3,55.0,30.08,SW,230,8.0,8.0,51,0.00,,,0.00,Wunderground v.1.15,2013-05-14 14:30:00,
2013-05-14 09:36:00,74.9,55.0,30.08,South,191,13.0,15.0,50,0.00,,,0.00,weatherlink.com 1.10,2013-05-14 14:36:00,
2013-05-14 09:45:00,75.6,55.1,30.09,SW,232,7.0,7.0,49,0.00,,,0.00,Wunderground v.1.15,2013-05-14 14:45:00,
2013-05-14 09:50:00,75.6,55.1,30.08,SSW,207,8.0,8.0,49,0.00,,,0.00,Wunderground v.1.15,2013-05-14 14:50:00,
2013-05-14 09:51:00,75.6,55.0,30.09,SW,224,6.0,14.0,49,0.00,,,0.00,weatherlink.com 1.10,2013-05-14 14:51:00,
2013-05-14 10:00:00,75.8,55.3,30.09,SW,220,9.0,9.0,49,0.00,,,0.00,Wunderground v.1.15,2013-05-14 15:00:00,
2013-05-14 10:05:00,76.3,55.7,30.09,WSW,251,9.0,9.0,49,0.00,,,0.00,Wunderground v.1.15,2013-05-14 15:05:00,
2013-05-14 10:06:00,76.3,56.0,30.09,WSW,240,7.0,18.0,49,0.00,,,0.00,weatherlink.com 1.10,2013-05-14 15:06:00,
2013-05-14 10:15:00,77.5,55.7,30.09,WSW,237,7.0,9.0,47,0.00,,,0.00,Wunderground v.1.15,2013-05-14 15:15:00,
2013-05-14 10:20:00,78.1,56.2,30.09,SW,225,7.0,7.0,47,0.00,,,0.00,Wunderground v.1.15,2013-05-14 15:20:00,
2013-05-14 10:21:00,78.2,56.0,30.09,WSW,242,10.0,15.0,46,0.00,,,0.00,weatherlink.com 1.10,2013-05-14 15:21:00,
2013-05-14 10:30:00,78.5,56.0,30.09,SW,217,9.0,11.0,46,0.00,,,0.00,Wunderground v.1.15,2013-05-14 15:30:00,
2013-05-14 10:36:00,79.1,56.0,30.08,SW,227,7.0,17.0,45,0.00,,,0.00,weatherlink.com 1.10,2013-05-14 15:36:00,
2013-05-14 10:40:00,79.5,56.3,30.08,WSW,244,8.0,11.0,45,0.00,,,0.00,Wunderground v.1.15,2013-05-14 15:40:00,
2013-05-14 10:50:00,80.1,56.2,30.08,SSW,207,8.0,8.0,44,0.00,,,0.00,Wunderground v.1.15,2013-05-14 15:50:00,
2013-05-14 10:51:00,80.2,56.0,30.08,WSW,246,8.0,16.0,44,0.00,,,0.00,weatherlink.com 1.10,2013-05-14 15:51:00,
2013-05-14 11:00:00,80.0,56.1,30.08,SW,221,8.0,8.0,44,0.00,,,0.00,Wunderground v.1.15,2013-05-14 16:00:00,
2013-05-14 11:05:00,80.1,56.2,30.08,SW,232,8.0,8.0,44,0.00,,,0.00,Wunderground v.1.15,2013-05-14 16:05:00,
2013-05-14 11:07:00,80.4,56.0,30.08,SW,217,6.0,15.0,44,0.00,,,0.00,weatherlink.com 1.10,2013-05-14 16:07:00,
2013-05-14 11:10:00,80.9,56.9,30.08,SW,228,6.0,6.0,44,0.00,,,0.00,Wunderground v.1.15,2013-05-14 16:10:00,
2013-05-14 11:15:00,81.2,56.6,30.08,SW,221,5.0,6.0,43,0.00,,,0.00,Wunderground v.1.15,2013-05-14 16:15:00,
2013-05-14 11:20:00,81.2,56.6,30.08,SSW,200,7.0,8.0,43,0.00,,,0.00,Wunderground v.1.15,2013-05-14 16:20:00,
2013-05-14 11:22:00,81.1,56.0,30.08,SSW,213,11.0,16.0,43,0.00,,,0.00,weatherlink.com 1.10,2013-05-14 16:22:00,
2013-05-14 11:30:00,81.6,56.3,30.08,SSW,211,7.0,7.0,42,0.00,,,0.00,Wunderground v.1.15,2013-05-14 16:30:00,
2013-05-14 11:35:00,81.6,56.3,30.08,SW,229,8.0,8.0,42,0.00,,,0.00,Wunderground v.1.15,2013-05-14 16:35:00,
2013-05-14 11:37:00,81.9,57.0,30.08,NW,321,4.0,15.0,42,0.00,,,0.00,weatherlink.com 1.10,2013-05-14 16:37:00,
2013-05-14 11:45:00,82.3,55.6,30.08,SW,223,6.0,8.0,40,0.00,,,0.00,Wunderground v.1.15,2013-05-14 16:45:00,
2013-05-14 11:50:00,82.3,56.2,30.07,SW,229,8.0,8.0,41,0.00,,,0.00,Wunderground v.1.15,2013-05-14 16:50:00,
2013-05-14 11:52:00,82.7,56.0,30.07,SSW,212,3.0,16.0,40,0.00,,,0.00,weatherlink.com 1.10,2013-05-14 16:52:00,
2013-05-14 12:00:00,83.6,55.3,30.07,SW,234,7.0,8.0,38,0.00,,,0.00,Wunderground v.1.15,2013-05-14 17:00:00,
2013-05-14 12:05:00,83.4,55.8,30.07,SW,230,7.0,8.0,39,0.00,,,0.00,Wunderground v.1.15,2013-05-14 17:05:00,
2013-05-14 12:07:00,83.3,56.0,30.07,South,188,7.0,13.0,39,0.00,,,0.00,weatherlink.com 1.10,2013-05-14 17:07:00,
2013-05-14 12:15:00,83.6,56.0,30.07,WSW,249,6.0,8.0,39,0.00,,,0.00,Wunderground v.1.15,2013-05-14 17:15:00,
2013-05-14 12:20:00,84.0,55.7,30.06,West,263,7.0,8.0,38,0.00,,,0.00,Wunderground v.1.15,2013-05-14 17:20:00,
2013-05-14 12:22:00,84.0,55.0,30.06,SW,232,6.0,15.0,37,0.00,,,0.00,weatherlink.com 1.10,2013-05-14 17:22:00,
2013-05-14 12:30:00,84.1,55.0,30.06,SW,215,7.0,7.0,37,0.00,,,0.00,Wunderground v.1.15,2013-05-14 17:30:00,
2013-05-14 12:37:00,84.3,55.0,30.05,SW,225,10.0,12.0,36,0.00,,,0.00,weatherlink.com 1.10,2013-05-14 17:37:00,
2013-05-14 12:45:00,84.6,51.5,30.05,SSW,200,9.0,9.0,32,0.00,,,0.00,Wunderground v.1.15,2013-05-14 17:45:00,
2013-05-14 12:50:00,85.0,51.8,30.05,SW,228,9.0,9.0,32,0.00,,,0.00,Wunderground v.1.15,2013-05-14 17:50:00,
2013-05-14 12:52:00,85.0,52.0,30.04,WSW,247,10.0,17.0,32,0.00,,,0.00,weatherlink.com 1.10,2013-05-14 17:52:00,
2013-05-14 13:00:00,85.2,51.1,30.04,SW,234,9.0,12.0,31,0.00,,,0.00,Wunderground v.1.15,2013-05-14 18:00:00,
2013-05-14 13:08:00,85.2,51.0,30.04,SW,225,15.0,18.0,31,0.00,,,0.00,weatherlink.com 1.10,2013-05-14 18:08:00,
2013-05-14 13:15:00,85.6,51.5,30.04,South,188,10.0,15.0,31,0.00,,,0.00,Wunderground v.1.15,2013-05-14 18:15:00,
2013-05-14 13:20:00,85.2,51.1,30.03,SSW,202,11.0,11.0,31,0.00,,,0.00,Wunderground v.1.15,2013-05-14 18:20:00,
2013-05-14 13:23:00,85.1,51.0,30.03,South,190,18.0,20.0,31,0.00,,,0.00,weatherlink.com 1.10,2013-05-14 18:23:00,
2013-05-14 13:30:00,85.8,49.9,30.03,SSW,213,12.0,15.0,29,0.00,,,0.00,Wunderground v.1.15,2013-05-14 18:30:00,
2013-05-14 13:39:00,85.4,51.0,30.02,South,178,7.0,21.0,30,0.00,,,0.00,weatherlink.com 1.10,2013-05-14 18:39:00,
2013-05-14 13:45:00,86.1,48.2,30.02,SW,218,12.0,13.0,27,0.00,,,0.00,Wunderground v.1.15,2013-05-14 18:45:00,
2013-05-14 13:50:00,86.2,50.2,30.02,South,184,9.0,9.0,29,0.00,,,0.00,Wunderground v.1.15,2013-05-14 18:50:00,
2013-05-14 13:54:00,86.3,53.0,30.02,SW,223,10.0,19.0,32,0.00,,,0.00,weatherlink.com 1.10,2013-05-14 18:54:00,
2013-05-14 14:00:00,86.1,51.9,30.01,WSW,240,10.0,10.0,31,0.00,,,0.00,Wunderground v.1.15,2013-05-14 19:00:00,
2013-05-14 14:05:00,85.7,52.4,30.01,SSW,204,11.0,15.0,32,0.00,,,0.00,Wunderground v.1.15,2013-05-14 19:05:00,
2013-05-14 14:09:00,85.1,53.0,30.01,South,173,10.0,21.0,33,0.00,,,0.00,weatherlink.com 1.10,2013-05-14 19:09:00,
2013-05-14 14:15:00,85.5,52.3,30.01,SW,214,11.0,12.0,32,0.00,,,0.00,Wunderground v.1.15,2013-05-14 19:15:00,
2013-05-14 14:20:00,85.7,50.7,30.01,SW,235,12.0,12.0,30,0.00,,,0.00,Wunderground v.1.15,2013-05-14 19:20:00,
2013-05-14 14:23:00,86.2,49.0,30.01,SSW,194,13.0,24.0,28,0.00,,,0.00,weatherlink.com 1.10,2013-05-14 19:23:00,
2013-05-14 14:30:00,86.1,51.0,30.00,SW,229,11.0,11.0,30,0.00,,,0.00,Wunderground v.1.15,2013-05-14 19:30:00,
2013-05-14 14:35:00,86.0,51.0,30.00,South,182,10.0,13.0,30,0.00,,,0.00,Wunderground v.1.15,2013-05-14 19:35:00,
2013-05-14 14:39:00,86.0,52.0,30.01,SW,229,5.0,22.0,31,0.00,,,0.00,weatherlink.com 1.10,2013-05-14 19:39:00,
2013-05-14 14:45:00,86.2,52.9,30.00,SSW,194,10.0,15.0,32,0.00,,,0.00,Wunderground v.1.15,2013-05-14 19:45:00,
2013-05-14 14:50:00,86.4,52.2,30.00,SSW,194,11.0,11.0,31,0.00,,,0.00,Wunderground v.1.15,2013-05-14 19:50:00,
2013-05-14 14:54:00,85.8,52.0,30.00,South,179,10.0,22.0,31,0.00,,,0.00,weatherlink.com 1.10,2013-05-14 19:54:00,
2013-05-14 15:00:00,85.6,52.4,30.00,SSW,192,13.0,15.0,32,0.00,,,0.00,Wunderground v.1.15,2013-05-14 20:00:00,
2013-05-14 15:05:00,86.1,51.9,29.99,SSE,167,12.0,15.0,31,0.00,,,0.00,Wunderground v.1.15,2013-05-14 20:05:00,
2013-05-14 15:09:00,86.2,53.0,29.99,SSW,211,12.0,23.0,32,0.00,,,0.00,weatherlink.com 1.10,2013-05-14 20:09:00,
2013-05-14 15:20:00,86.5,50.5,29.99,SSW,194,13.0,20.0,29,0.00,,,0.00,Wunderground v.1.15,2013-05-14 20:20:00,
2013-05-14 15:24:00,86.5,51.0,29.98,SSW,211,12.0,24.0,29,0.00,,,0.00,weatherlink.com 1.10,2013-05-14 20:24:00,
2013-05-14 15:30:00,86.5,50.5,29.98,SSW,194,14.0,14.0,29,0.00,,,0.00,Wunderground v.1.15,2013-05-14 20:30:00,
2013-05-14 15:35:00,86.7,52.4,29.98,SW,215,11.0,20.0,31,0.00,,,0.00,Wunderground v.1.15,2013-05-14 20:35:00,
2013-05-14 15:39:00,86.2,51.0,29.98,South,174,12.0,23.0,30,0.00,,,0.00,weatherlink.com 1.10,2013-05-14 20:39:00,
2013-05-14 15:45:00,86.8,53.4,29.98,SSW,204,13.0,13.0,32,0.00,,,0.00,Wunderground v.1.15,2013-05-14 20:45:00,
2013-05-14 15:50:00,86.3,52.1,29.97,SW,227,12.0,12.0,31,0.00,,,0.00,Wunderground v.1.15,2013-05-14 20:50:00,
2013-05-14 15:54:00,86.3,52.0,29.97,SSW,197,16.0,22.0,31,0.00,,,0.00,weatherlink.com 1.10,2013-05-14 20:54:00,
2013-05-14 16:00:00,86.5,52.3,29.97,SSW,211,13.0,18.0,31,0.00,,,0.00,Wunderground v.1.15,2013-05-14 21:00:00,
2013-05-14 16:09:00,86.8,53.0,29.97,SSW,200,10.0,18.0,31,0.00,,,0.00,weatherlink.com 1.10,2013-05-14 21:09:00,
2013-05-14 16:15:00,86.4,53.1,29.97,South,179,10.0,15.0,32,0.00,,,0.00,Wunderground v.1.15,2013-05-14 21:15:00,
2013-05-14 16:24:00,86.5,53.0,29.96,SW,220,13.0,23.0,32,0.00,,,0.00,weatherlink.com 1.10,2013-05-14 21:24:00,
2013-05-14 16:30:00,86.6,52.4,29.96,SSE,167,12.0,12.0,31,0.00,,,0.00,Wunderground v.1.15,2013-05-14 21:30:00,
2013-05-14 16:35:00,86.6,52.4,29.96,SW,228,12.0,12.0,31,0.00,,,0.00,Wunderground v.1.15,2013-05-14 21:35:00,
2013-05-14 16:39:00,86.5,53.0,29.96,SSW,194,7.0,23.0,32,0.00,,,0.00,weatherlink.com 1.10,2013-05-14 21:39:00,
2013-05-14 16:45:00,86.9,53.5,29.95,South,187,9.0,11.0,32,0.00,,,0.00,Wunderground v.1.15,2013-05-14 21:45:00,
2013-05-14 16:50:00,86.4,54.7,29.95,South,180,10.0,13.0,34,0.00,,,0.00,Wunderground v.1.15,2013-05-14 21:50:00,
2013-05-14 16:54:00,86.0,54.0,29.95,SSW,205,12.0,22.0,33,0.00,,,0.00,weatherlink.com 1.10,2013-05-14 21:54:00,
2013-05-14 17:00:00,86.2,54.5,29.96,South,178,13.0,19.0,34,0.00,,,0.00,Wunderground v.1.15,2013-05-14 22:00:00,
2013-05-14 17:05:00,86.3,55.4,29.96,South,176,12.0,19.0,35,0.00,,,0.00,Wunderground v.1.15,2013-05-14 22:05:00,
2013-05-14 17:09:00,85.9,55.0,29.95,South,180,11.0,20.0,35,0.00,,,0.00,weatherlink.com 1.10,2013-05-14 22:09:00,
2013-05-14 17:15:00,85.8,55.8,29.95,SSE,167,12.0,12.0,36,0.00,,,0.00,Wunderground v.1.15,2013-05-14 22:15:00,
2013-05-14 17:20:00,85.3,55.3,29.95,South,188,13.0,18.0,36,0.00,,,0.00,Wunderground v.1.15,2013-05-14 22:20:00,
2013-05-14 17:24:00,85.3,56.0,29.95,South,182,18.0,18.0,37,0.00,,,0.00,weatherlink.com 1.10,2013-05-14 22:24:00,
2013-05-14 17:30:00,85.6,55.6,29.94,South,188,12.0,12.0,36,0.00,,,0.00,Wunderground v.1.15,2013-05-14 22:30:00,
2013-05-14 17:35:00,85.4,56.2,29.94,SSE,165,13.0,13.0,37,0.00,,,0.00,Wunderground v.1.15,2013-05-14 22:35:00,
2013-05-14 17:40:00,85.3,56.1,29.94,SSE,165,14.0,18.0,37,0.00,,,0.00,Wunderground v.1.15,2013-05-14 22:40:00,
2013-05-14 17:41:00,85.2,56.0,29.94,SSW,198,15.0,20.0,37,0.00,,,0.00,weatherlink.com 1.10,2013-05-14 22:41:00,
2013-05-14 17:45:00,85.2,56.0,29.94,South,183,14.0,18.0,37,0.00,,,0.00,Wunderground v.1.15,2013-05-14 22:45:00,
2013-05-14 17:50:00,84.8,56.4,29.94,South,177,14.0,14.0,38,0.00,,,0.00,Wunderground v.1.15,2013-05-14 22:50:00,
2013-05-14 17:55:00,85.0,56.5,29.94,SSE,163,13.0,14.0,38,0.00,,,0.00,Wunderground v.1.15,2013-05-14 22:55:00,
2013-05-14 17:56:00,85.0,57.0,29.94,South,172,13.0,20.0,38,0.00,,,0.00,weatherlink.com 1.10,2013-05-14 22:56:00,
2013-05-14 18:05:00,85.1,57.4,29.94,SE,144,12.0,12.0,39,0.00,,,0.00,Wunderground v.1.15,2013-05-14 23:05:00,
2013-05-14 18:10:00,84.9,57.2,29.93,SE,146,11.0,11.0,39,0.00,,,0.00,Wunderground v.1.15,2013-05-14 23:10:00,
2013-05-14 18:11:00,84.9,57.0,29.94,SSE,167,6.0,21.0,39,0.00,,,0.00,weatherlink.com 1.10,2013-05-14 23:11:00,
2013-05-14 18:15:00,84.3,57.3,29.93,South,184,11.0,11.0,40,0.00,,,0.00,Wunderground v.1.15,2013-05-14 23:15:00,
2013-05-14 18:25:00,84.2,57.3,29.93,SSE,157,11.0,16.0,40,0.00,,,0.00,Wunderground v.1.15,2013-05-14 23:25:00,
2013-05-14 18:26:00,84.2,58.0,29.93,SE,144,10.0,17.0,41,0.00,,,0.00,weatherlink.com 1.10,2013-05-14 23:26:00,
2013-05-14 18:35:00,83.8,58.3,29.93,SSE,162,11.0,16.0,42,0.00,,,0.00,Wunderground v.1.15,2013-05-14 23:35:00,
2013-05-14 18:40:00,84.0,57.8,29.93,South,172,11.0,11.0,41,0.00,,,0.00,Wunderground v.1.15,2013-05-14 23:40:00,
2013-05-14 18:41:00,84.0,58.0,29.93,SSE,162,6.0,16.0,42,0.00,,,0.00,weatherlink.com 1.10,2013-05-14 23:41:00,
2013-05-14 18:45:00,83.7,58.2,29.93,SSE,163,10.0,11.0,42,0.00,,,0.00,Wunderground v.1.15,2013-05-14 23:45:00,
2013-05-14 18:50:00,83.4,57.9,29.93,SSW,209,10.0,14.0,42,0.00,,,0.00,Wunderground v.1.15,2013-05-14 23:50:00,
2013-05-14 18:55:00,83.3,57.8,29.93,South,190,11.0,14.0,42,0.00,,,0.00,Wunderground v.1.15,2013-05-14 23:55:00,
2013-05-14 18:56:00,83.3,58.0,29.93,South,180,13.0,21.0,42,0.00,,,0.00,weatherlink.com 1.10,2013-05-14 23:56:00,
2013-05-14 19:05:00,83.0,57.5,29.93,SSE,168,12.0,15.0,42,0.00,,,0.00,Wunderground v.1.15,2013-05-15 00:05:00,
2013-05-14 19:11:00,82.9,57.0,29.93,South,188,17.0,25.0,42,0.00,,,0.00,weatherlink.com 1.10,2013-05-15 00:11:00,
2013-05-14 19:15:00,82.8,57.4,29.93,South,172,13.0,13.0,42,0.00,,,0.00,Wunderground v.1.15,2013-05-15 00:15:00,
2013-05-14 19:20:00,82.6,57.2,29.93,South,177,12.0,12.0,42,0.00,,,0.00,Wunderground v.1.15,2013-05-15 00:20:00,
2013-05-14 19:25:00,82.6,57.2,29.93,South,180,11.0,17.0,42,0.00,,,0.00,Wunderground v.1.15,2013-05-15 00:25:00,
2013-05-14 19:26:00,82.5,57.0,29.93,South,180,12.0,21.0,42,0.00,,,0.00,weatherlink.com 1.10,2013-05-15 00:26:00,
2013-05-14 19:35:00,82.1,57.4,29.93,South,186,15.0,15.0,43,0.00,,,0.00,Wunderground v.1.15,2013-05-15 00:35:00,
2013-05-14 19:40:00,81.8,57.1,29.93,South,190,12.0,12.0,43,0.00,,,0.00,Wunderground v.1.15,2013-05-15 00:40:00,
2013-05-14 19:41:00,81.8,57.0,29.93,South,184,11.0,20.0,43,0.00,,,0.00,weatherlink.com 1.10,2013-05-15 00:41:00,
2013-05-14 19:45:00,81.5,56.8,29.93,SSE,165,11.0,12.0,43,0.00,,,0.00,Wunderground v.1.15,2013-05-15 00:45:00,
2013-05-14 19:55:00,80.9,57.6,29.93,SSW,198,10.0,11.0,45,0.00,,,0.00,Wunderground v.1.15,2013-05-15 00:55:00,
2013-05-14 19:56:00,80.8,57.0,29.93,SSE,166,11.0,20.0,45,0.00,,,0.00,weatherlink.com 1.10,2013-05-15 00:56:00,
2013-05-14 20:05:00,80.3,57.0,29.93,SSE,161,10.0,12.0,45,0.00,,,0.00,Wunderground v.1.15,2013-05-15 01:05:00,
2013-05-14 20:10:00,80.2,56.3,29.94,SSE,159,10.0,16.0,44,0.00,,,0.00,Wunderground v.1.15,2013-05-15 01:10:00,
2013-05-14 20:11:00,80.2,56.0,29.94,South,173,14.0,16.0,44,0.00,,,0.00,weatherlink.com 1.10,2013-05-15 01:11:00,
2013-05-14 20:20:00,79.9,55.4,29.94,SSE,163,10.0,10.0,43,0.00,,,0.00,Wunderground v.1.15,2013-05-15 01:20:00,
2013-05-14 20:25:00,79.6,55.8,29.94,South,188,9.0,10.0,44,0.00,,,0.00,Wunderground v.1.15,2013-05-15 01:25:00,
2013-05-14 20:26:00,79.6,56.0,29.93,SSE,167,6.0,15.0,44,0.00,,,0.00,weatherlink.com 1.10,2013-05-15 01:26:00,
2013-05-14 20:30:00,79.3,56.1,29.93,South,175,8.0,10.0,45,0.00,,,0.00,Wunderground v.1.15,2013-05-15 01:30:00,
2013-05-14 20:40:00,78.8,55.0,29.93,South,180,8.0,15.0,44,0.00,,,0.00,Wunderground v.1.15,2013-05-15 01:40:00,
2013-05-14 20:41:00,78.8,55.0,29.93,SSE,147,6.0,16.0,44,0.00,,,0.00,weatherlink.com 1.10,2013-05-15 01:41:00,
2013-05-14 20:45:00,78.5,55.4,29.93,SSE,158,8.0,15.0,45,0.00,,,0.00,Wunderground v.1.15,2013-05-15 01:45:00,
2013-05-14 20:50:00,78.3,55.2,29.93,South,173,8.0,8.0,45,0.00,,,0.00,Wunderground v.1.15,2013-05-15 01:50:00,
2013-05-14 20:55:00,78.1,55.0,29.93,South,175,8.0,8.0,45,0.00,,,0.00,Wunderground v.1.15,2013-05-15 01:55:00,
2013-05-14 20:56:00,78.1,55.0,29.93,South,184,11.0,15.0,45,0.00,,,0.00,weatherlink.com 1.10,2013-05-15 01:56:00,
2013-05-14 21:05:00,77.7,54.7,29.93,South,178,9.0,9.0,45,0.00,,,0.00,Wunderground v.1.15,2013-05-15 02:05:00,
2013-05-14 21:10:00,77.5,54.5,29.93,SSE,166,8.0,8.0,45,0.00,,,0.00,Wunderground v.1.15,2013-05-15 02:10:00,
2013-05-14 21:12:00,77.5,54.0,29.93,South,175,7.0,14.0,44,0.00,,,0.00,weatherlink.com 1.10,2013-05-15 02:12:00,
2013-05-14 21:20:00,77.3,54.3,29.94,South,191,8.0,10.0,45,0.00,,,0.00,Wunderground v.1.15,2013-05-15 02:20:00,
2013-05-14 21:25:00,77.0,54.0,29.94,SSE,168,8.0,11.0,45,0.00,,,0.00,Wunderground v.1.15,2013-05-15 02:25:00,
2013-05-14 21:27:00,76.9,54.0,29.94,SSE,157,9.0,15.0,46,0.00,,,0.00,weatherlink.com 1.10,2013-05-15 02:27:00,
2013-05-14 21:35:00,76.5,54.2,29.94,SSE,150,9.0,10.0,46,0.00,,,0.00,Wunderground v.1.15,2013-05-15 02:35:00,
2013-05-14 21:40:00,76.4,54.1,29.93,SSE,165,9.0,9.0,46,0.00,,,0.00,Wunderground v.1.15,2013-05-15 02:40:00,
2013-05-14 21:42:00,76.4,54.0,29.93,SSW,209,5.0,15.0,46,0.00,,,0.00,weatherlink.com 1.10,2013-05-15 02:42:00,
2013-05-14 21:50:00,76.3,54.6,29.94,South,177,8.0,8.0,47,0.00,,,0.00,Wunderground v.1.15,2013-05-15 02:50:00,
2013-05-14 21:55:00,76.2,54.5,29.94,South,169,9.0,10.0,47,0.00,,,0.00,Wunderground v.1.15,2013-05-15 02:55:00,
2013-05-14 21:57:00,76.1,54.0,29.94,SSE,161,9.0,17.0,47,0.00,,,0.00,weatherlink.com 1.10,2013-05-15 02:57:00,
2013-05-14 22:05:00,76.0,54.9,29.95,SSE,160,9.0,14.0,48,0.00,,,0.00,Wunderground v.1.15,2013-05-15 03:05:00,
2013-05-14 22:10:00,75.8,54.7,29.95,South,173,10.0,12.0,48,0.00,,,0.00,Wunderground v.1.15,2013-05-15 03:10:00,
2013-05-14 22:12:00,75.7,55.0,29.95,South,171,10.0,16.0,49,0.00,,,0.00,weatherlink.com 1.10,2013-05-15 03:12:00,
2013-05-14 22:20:00,75.5,55.0,29.96,South,184,10.0,10.0,49,0.00,,,0.00,Wunderground v.1.15,2013-05-15 03:20:00,
2013-05-14 22:25:00,75.3,55.4,29.96,South,190,10.0,10.0,50,0.00,,,0.00,Wunderground v.1.15,2013-05-15 03:25:00,
2013-05-14 22:27:00,75.3,55.0,29.96,South,178,4.0,18.0,50,0.00,,,0.00,weatherlink.com 1.10,2013-05-15 03:27:00,
2013-05-14 22:35:00,75.1,55.2,29.97,SSE,162,9.0,12.0,50,0.00,,,0.00,Wunderground v.1.15,2013-05-15 03:35:00,
2013-05-14 22:40:00,75.2,54.7,29.97,South,184,9.0,9.0,49,0.00,,,0.00,Wunderground v.1.15,2013-05-15 03:40:00,
2013-05-14 22:42:00,75.3,54.0,29.96,SSE,159,11.0,18.0,48,0.00,,,0.00,weatherlink.com 1.10,2013-05-15 03:42:00,
2013-05-14 22:50:00,75.5,54.4,29.96,South,188,11.0,11.0,48,0.00,,,0.00,Wunderground v.1.15,2013-05-15 03:50:00,
2013-05-14 22:55:00,75.5,54.4,29.97,South,174,11.0,11.0,48,0.00,,,0.00,Wunderground v.1.15,2013-05-15 03:55:00,
2013-05-14 22:57:00,75.6,54.0,29.97,South,173,7.0,21.0,48,0.00,,,0.00,weatherlink.com 1.10,2013-05-15 03:57:00,
2013-05-14 23:05:00,75.5,54.4,29.97,South,173,11.0,13.0,48,0.00,,,0.00,Wunderground v.1.15,2013-05-15 04:05:00,
2013-05-14 23:10:00,75.3,54.8,29.97,SSE,159,11.0,11.0,49,0.00,,,0.00,Wunderground v.1.15,2013-05-15 04:10:00,
2013-05-14 23:12:00,75.2,55.0,29.97,SSE,159,6.0,17.0,49,0.00,,,0.00,weatherlink.com 1.10,2013-05-15 04:12:00,
2013-05-14 23:20:00,74.6,55.3,29.97,SSE,165,8.0,10.0,51,0.00,,,0.00,Wunderground v.1.15,2013-05-15 04:20:00,
2013-05-14 23:25:00,74.2,55.4,29.97,SSE,165,8.0,15.0,52,0.00,,,0.00,Wunderground v.1.15,2013-05-15 04:25:00,
2013-05-14 23:29:00,73.9,56.0,29.97,SSE,156,13.0,16.0,53,0.00,,,0.00,weatherlink.com 1.10,2013-05-15 04:29:00,
2013-05-14 23:35:00,73.6,55.9,29.97,South,186,9.0,9.0,54,0.00,,,0.00,Wunderground v.1.15,2013-05-15 04:35:00,
2013-05-14 23:40:00,73.3,55.6,29.97,SSE,153,8.0,8.0,54,0.00,,,0.00,Wunderground v.1.15,2013-05-15 04:40:00,
2013-05-14 23:44:00,73.1,56.0,29.97,South,176,7.0,13.0,55,0.00,,,0.00,weatherlink.com 1.10,2013-05-15 04:44:00,
2013-05-14 23:45:00,73.1,56.0,29.97,SSE,159,7.0,8.0,55,0.00,,,0.00,Wunderground v.1.15,2013-05-15 04:45:00,
2013-05-14 23:50:00,72.8,56.2,29.97,South,179,8.0,10.0,56,0.00,,,0.00,Wunderground v.1.15,2013-05-15 04:50:00,
2013-05-14 23:55:00,72.5,55.9,29.97,South,171,8.0,10.0,56,0.00,,,0.00,Wunderground v.1.15,2013-05-15 04:55:00,
2013-05-14 23:59:00,72.4,56.0,29.97,South,181,9.0,16.0,56,0.00,,,0.00,weatherlink.com 1.10,2013-05-15 04:59:00,